Location: Moscow
(38.3171°N, 79.0889°W)
Time: 22:41:44
(UTC+00:00)

Cosmos 1992 Rocket - Pass Details

Date: 07 November 2025
Orbit: 755 x 760 km, 74.0° (Epoch: 14 December)

Event Time Altitude Azimuth Distance (km) Brightness Sun altitude
Rises 23:32:16 0° 341° (NNW) 3,222 7.4 -16.4°
Reaches altitude 10° 23:34:39 10° 341° (NNW) 2,292 6.6 -16.8°
Maximum altitude 23:39:51 87° 254° (WSW) 763 3.9 -17.9°
Drops below altitude 10° 23:45:01 10° 165° (SSE) 2,273 6.4 -18.9°
Sets 23:47:22 0° 164° (SSE) 3,194 7.1 -19.3°
